Погода в Сан-Педро-де-Алькантара

Испания     36°29′14″N   4°59′25″W
темп.,
°C
ветер,
м/с
пор.,
м/с
влажн.,
%
обл.,
%
осадки,
мм/ч
давл.,
гПа
погр.,
м
23 апреля, пт
пт2323:00+16св2379100 0.0 101559
02:00+15всв3594100 0.0 1016256
05:00+15в4692100 0.2 1015527
08:00+14всв4789100 0.4 1016619
11:00+16в5879100 0.4 1018950
14:00+17в5770100 0.7 10171077
17:00+17в5768100 0.1 1016961
20:00+16в4771100 0.1 1016730
24 апреля, сб
сб2423:00+15в3682100 0.0 1017527
02:00+14в378851 0.1 1016685
05:00+14в388316 0.1 1015645
08:00+14в3679100 0.1 1015657
11:00+14в41082100 0.4 1014940
14:00+17вюв51066100 0.4 10131069
17:00+17юв3569100 0.0 1012775
20:00+15ю238128 0.4 1012544
25 апреля, вс
вс2523:00+14св129298 0.9 1012267
02:00+13з3592100 2.8 1011214
05:00+13ссз2292100 1.7 101075
08:00+14сз229180 1.7 101056
11:00+16юз2273100 0.0 1010575
14:00+19юз236386 0.0 1009858
17:00+17з347229 0.2 1007557
20:00+17юз247711 1.1 1007505
26 апреля, пн
пн2623:00+15сз228519 0.3 100932
02:00+14зсз23755 0.3 100953
05:00+13зсз33775 0.0 100876
08:00+14сз338099 0.1 100975
11:00+15зсз257995 0.6 1009527
14:00+18зюз477479 2.2 10091030
17:00+20зюз51052100 1.4 10071634
20:00+19зюз37577 1.4 1007925
27 апреля, вт
вт2723:00+15зсз23809 0.2 100973
02:00+14зсз23855 0.3 100963
05:00+13з249193 0.3 1008185
08:00+14зюз379399 1.1 1009520
11:00+15юз379290 0.9 1010506
14:00+16зюз478573 1.9 1010619
17:00+19зюз3672100 1.5 1008866
20:00+18зюз3572100 1.6 1008522